Weather History for Oak Ridge, TN

Change the Weather History Date:

Wednesday, February 29, 2012

  Actual Average (KTYS) Record (KTYS)
Temperature  
Mean Temperature 62 °F 46 °F  
Max Temperature 68 °F 57 °F 75 °F (1972)
Min Temperature 55 °F 36 °F 8 °F (1884)
Degree Days  
Heating Degree Days 4 19  
Month to date heating degree days 653  
Since 1 July heating degree days 2915  
Cooling Degree Days 0 0  
Month to date cooling degree days 0  
Year to date cooling degree days 0  
Growing Degree Days 12 (Base 50)    
Moisture  
Dew Point 58 °F    
Average Humidity 87    
Maximum Humidity 100    
Minimum Humidity 59    
Precipitation  
Precipitation 0.44 in 0.14 in 0.80 in (2012)
Month to date precipitation 4.26  
Year to date precipitation 8.58  
Snow  
Snow 0.00 in 0.00 in - ()
Month to date snowfall 1.6  
Since 1 July snowfall 5.1  
Snow Depth -    
Sea Level Pressure  
Sea Level Pressure 29.97 in    
Wind  
Wind Speed 6 mph (SW)    
Max Wind Speed 13 mph    
Max Gust Speed 32 mph    
Visibility 7 miles    
Events Rain    
T = Trace of Precipitation, MM = Missing Value Source: NWS Daily Summary

Daily Weather History Graph

Daily Weather History Graph

Search for Another Location

Airport:

Trip Planner

Search our weather history database for the weather conditions in past years. The results will help you decide how hot, cold, wet, or windy it might be!

Date:

Astronomy

Feb. 29, 2012 Rise Set
Actual Time 7:07 AM EST 6:31 PM EST
Civil Twilight 6:42 AM EST 6:57 PM EST
Nautical Twilight 6:12 AM EST 7:26 PM EST
Astronomical Twilight 5:42 AM EST 7:56 PM EST
Moon 11:12 AM EST (2/29) 1:03 AM EST (2/29)
Length of Visible Light 12h 15m
Length of Day
11h 23m
Waxing Crescent, 47% of the Moon is Illuminated
Feb 29
Waxing Crescent
Feb 29
First Quarter
Mar 8
Full
Mar 14
Last Quarter
Mar 22
New

Hourly Weather History & Observations

Time (EST) Temp. Dew Point Humidity Pressure Visibility Wind Dir Wind Speed Gust Speed Precip Events Conditions
12:19 AM 62.6 °F 48.2 °F 59% 30.16 in 10.0 mi Variable 4.6 mph - N/A   Overcast
12:53 AM 61.0 °F 50.0 °F 67% 30.14 in 10.0 mi WSW 4.6 mph - N/A   Overcast
1:53 AM 60.1 °F 52.0 °F 75% 30.13 in 10.0 mi Variable 3.5 mph - N/A   Overcast
2:39 AM 57.2 °F 53.6 °F 88% 30.13 in 1.8 mi West 5.8 mph - 0.03 in Rain Heavy Rain
2:53 AM 59.0 °F 55.0 °F 87% 30.09 in 1.2 mi Calm Calm - 0.19 in Rain Heavy Rain
2:58 AM 57.2 °F 55.4 °F 94% 30.09 in 2.0 mi SSE 3.5 mph - 0.01 in Rain Rain
3:05 AM 55.4 °F 55.4 °F 100% 30.07 in 3.0 mi SSE 3.5 mph - 0.02 in Rain Light Rain
3:16 AM 57.2 °F 55.4 °F 94% 30.08 in 4.0 mi Calm Calm - 0.03 in Rain Light Rain
3:32 AM 57.2 °F 55.4 °F 94% 30.07 in 10.0 mi SW 3.5 mph - 0.03 in   Overcast
3:53 AM 57.0 °F 55.0 °F 93% 30.04 in 8.0 mi WSW 4.6 mph - 0.03 in Rain Light Rain
4:53 AM 57.0 °F 55.9 °F 96% 30.02 in 6.0 mi WSW 4.6 mph - 0.01 in   Overcast
5:17 AM 57.2 °F 55.4 °F 94% 30.05 in 10.0 mi West 4.6 mph - N/A   Overcast
5:53 AM 57.9 °F 55.9 °F 93% 30.03 in 3.0 mi SSW 4.6 mph - 0.01 in Rain Light Rain
6:37 AM 57.2 °F 57.2 °F 100% 30.04 in 5.0 mi WSW 3.5 mph - 0.02 in Rain Light Rain
6:53 AM 57.9 °F 57.0 °F 97% 30.03 in 4.0 mi Variable 3.5 mph - 0.02 in Rain Light Rain
7:23 AM 59.0 °F 57.2 °F 94% 30.05 in 2.0 mi Variable 3.5 mph - 0.01 in Rain Light Rain
7:53 AM 61.0 °F 59.0 °F 93% 30.04 in 2.5 mi SW 6.9 mph - 0.04 in Rain Light Rain
8:10 AM 60.8 °F 59.0 °F 94% 30.06 in 1.5 mi Variable 6.9 mph - 0.01 in Rain Light Rain
8:27 AM 60.8 °F 59.0 °F 94% 30.06 in 2.5 mi SSW 8.1 mph - 0.03 in Rain Light Rain
8:53 AM 61.0 °F 59.0 °F 93% 30.06 in 3.0 mi SW 6.9 mph - 0.04 in Rain Light Rain
9:13 AM 62.6 °F 59.0 °F 88% 30.06 in 10.0 mi SW 10.4 mph 17.3 mph 0.00 in   Overcast
9:53 AM 62.1 °F 59.0 °F 90% 30.04 in 9.0 mi SSW 8.1 mph 16.1 mph 0.00 in   Overcast
10:53 AM 64.0 °F 60.1 °F 87% 30.00 in 10.0 mi SSW 10.4 mph 16.1 mph N/A   Overcast
11:13 AM 64.4 °F 59.0 °F 83% 30.01 in 10.0 mi SSW 11.5 mph 19.6 mph 0.00 in   Overcast
11:53 AM 66.0 °F 59.0 °F 78% 29.98 in 10.0 mi SSW 12.7 mph 20.7 mph 0.00 in   Overcast
12:53 PM 64.9 °F 59.0 °F 81% 29.95 in 10.0 mi SSW 12.7 mph 21.9 mph N/A   Overcast
1:53 PM 64.0 °F 59.0 °F 84% 29.91 in 7.0 mi SSW 10.4 mph 18.4 mph 0.02 in Rain Light Rain
2:53 PM 66.0 °F 60.1 °F 81% 29.86 in 10.0 mi SSW 9.2 mph 20.7 mph 0.01 in   Overcast
3:53 PM 68.0 °F 59.0 °F 73% 29.84 in 10.0 mi SSW 12.7 mph 24.2 mph N/A   Overcast
4:53 PM 66.9 °F 59.0 °F 76% 29.78 in 10.0 mi SSW 10.4 mph 32.2 mph 0.00 in   Overcast
5:53 PM 64.9 °F 59.0 °F 81% 29.81 in 7.0 mi SSW 12.7 mph 31.1 mph 0.00 in Rain Rain
6:53 PM 64.0 °F 60.1 °F 87% 29.79 in 5.0 mi SSW 11.5 mph 24.2 mph 0.03 in Rain Heavy Rain
7:42 PM 64.4 °F 60.8 °F 88% 29.83 in 10.0 mi West 3.5 mph - 0.03 in   Overcast
7:53 PM 64.0 °F 60.1 °F 87% 29.81 in 10.0 mi Variable 4.6 mph - 0.03 in   Overcast
8:12 PM 64.4 °F 60.8 °F 88% 29.84 in 10.0 mi WSW 5.8 mph - N/A   Overcast
8:53 PM 64.0 °F 60.1 °F 87% 29.84 in 10.0 mi SW 6.9 mph - N/A   Overcast
9:53 PM 64.0 °F 61.0 °F 90% 29.83 in 10.0 mi SW 5.8 mph - 0.01 in   Overcast
10:07 PM 64.4 °F 60.8 °F 88% 29.85 in 10.0 mi SW 6.9 mph - N/A   Mostly Cloudy
10:15 PM 64.4 °F 60.8 °F 88% 29.84 in 10.0 mi SSW 9.2 mph - N/A   Mostly Cloudy
10:22 PM 64.4 °F 60.8 °F 88% 29.84 in 10.0 mi SW 8.1 mph - N/A   Mostly Cloudy
10:53 PM 64.0 °F 60.1 °F 87% 29.82 in 10.0 mi SW 8.1 mph 17.3 mph N/A   Mostly Cloudy
11:53 PM 64.0 °F 60.1 °F 87% 29.82 in 10.0 mi SW 8.1 mph - N/A   Mostly Cloudy